ACA1193 CYYZ-CYQT

Flight info

Callsign ACA1193
Flight time N/A
Altitude 36000
Route AVSEP7 MUSIT DCT SSM DCT DUPUL NOTER4
Aircraft A321/M-SDE3FGHIRWY/LB1

Departure

Time N/A
Airport Toronto Pearson International Airport (CYYZ)

Arrival

Time 2026-04-27 21:18
Airport Thunder Bay International Airport (CYQT)
Time Latitude Longitude Altitude Speed Heading
2026-04-27 20:50 47.39759 -86.46142 35871 ft 447 kts 300°
2026-04-27 20:50 47.41613 -86.50343 35869 ft 447 kts 300°
2026-04-27 20:51 47.45005 -86.58050 35861 ft 447 kts 300°
2026-04-27 20:51 47.48375 -86.65726 35858 ft 447 kts 299°
2026-04-27 20:52 47.51732 -86.73418 35856 ft 446 kts 299°
2026-04-27 20:52 47.55076 -86.81093 35845 ft 446 kts 299°
2026-04-27 20:53 47.56746 -86.84921 35598 ft 438 kts 299°
2026-04-27 20:53 47.58381 -86.88672 35340 ft 431 kts 299°
2026-04-27 20:53 47.59981 -86.92355 35029 ft 429 kts 299°
2026-04-27 20:53 47.61591 -86.96070 34653 ft 425 kts 300°
2026-04-27 20:54 47.64722 -87.03306 33570 ft 426 kts 300°
2026-04-27 20:54 47.66352 -87.07082 32904 ft 428 kts 300°
2026-04-27 20:54 47.67868 -87.10846 32226 ft 429 kts 297°
2026-04-27 20:55 47.69313 -87.14755 31483 ft 432 kts 297°
2026-04-27 20:55 47.70729 -87.18644 30759 ft 435 kts 297°
2026-04-27 20:55 47.72166 -87.22606 30019 ft 438 kts 297°
2026-04-27 20:55 47.73608 -87.26586 29278 ft 441 kts 297°
2026-04-27 20:56 47.75065 -87.30608 28515 ft 444 kts 297°
2026-04-27 20:56 47.76522 -87.34631 27749 ft 446 kts 297°
2026-04-27 20:56 47.77977 -87.38657 27107 ft 445 kts 297°
2026-04-27 20:56 47.79440 -87.42704 26615 ft 440 kts 297°
2026-04-27 20:57 47.80862 -87.46644 26115 ft 436 kts 297°
2026-04-27 20:57 47.82284 -87.50589 25614 ft 432 kts 297°
2026-04-27 20:57 47.83707 -87.54543 25114 ft 429 kts 297°
2026-04-27 20:57 47.85100 -87.58422 24627 ft 425 kts 297°
2026-04-27 20:58 47.86474 -87.62254 24147 ft 422 kts 297°
2026-04-27 20:58 47.87859 -87.66120 23663 ft 418 kts 297°
2026-04-27 20:58 47.89208 -87.69904 23185 ft 415 kts 297°
2026-04-27 20:58 47.90554 -87.73687 22713 ft 412 kts 297°
2026-04-27 20:59 47.91881 -87.77415 22245 ft 408 kts 297°
2026-04-27 20:59 47.93204 -87.81137 21780 ft 405 kts 297°
2026-04-27 20:59 47.94517 -87.84831 21316 ft 402 kts 297°
2026-04-27 20:59 47.95820 -87.88500 20863 ft 399 kts 297°
2026-04-27 21:00 47.97117 -87.92157 20406 ft 396 kts 297°
2026-04-27 21:00 47.98383 -87.95734 19958 ft 393 kts 297°
2026-04-27 21:00 47.99661 -87.99347 19504 ft 390 kts 297°
2026-04-27 21:00 48.00913 -88.02890 19062 ft 387 kts 297°
2026-04-27 21:01 48.02157 -88.06416 18619 ft 384 kts 297°
2026-04-27 21:01 48.03401 -88.09947 18175 ft 382 kts 297°
2026-04-27 21:01 48.04630 -88.13438 17738 ft 379 kts 297°
2026-04-27 21:01 48.05835 -88.16869 17306 ft 376 kts 298°
2026-04-27 21:02 48.07040 -88.20300 16873 ft 374 kts 298°
2026-04-27 21:02 48.08254 -88.23764 16438 ft 371 kts 298°
2026-04-27 21:02 48.09436 -88.27138 16013 ft 368 kts 298°
2026-04-27 21:02 48.10625 -88.30531 15579 ft 366 kts 298°
2026-04-27 21:03 48.11790 -88.33833 15160 ft 363 kts 298°
2026-04-27 21:03 48.12969 -88.37186 14735 ft 361 kts 298°
2026-04-27 21:03 48.14116 -88.40462 14321 ft 358 kts 298°
2026-04-27 21:03 48.15269 -88.43768 13900 ft 356 kts 298°
2026-04-27 21:04 48.16398 -88.47018 13490 ft 353 kts 298°
2026-04-27 21:04 48.17521 -88.50257 13085 ft 350 kts 298°
2026-04-27 21:04 48.18637 -88.53483 12679 ft 347 kts 298°
2026-04-27 21:04 48.19741 -88.56675 12278 ft 345 kts 298°
2026-04-27 21:05 48.20827 -88.59848 11874 ft 342 kts 296°
2026-04-27 21:05 48.21613 -88.63145 11472 ft 331 kts 284°
2026-04-27 21:05 48.21954 -88.66494 11086 ft 318 kts 274°
2026-04-27 21:05 48.22042 -88.69744 10717 ft 306 kts 271°
2026-04-27 21:06 48.22092 -88.72878 10350 ft 297 kts 271°
2026-04-27 21:06 48.22145 -88.75960 10237 ft 297 kts 271°
2026-04-27 21:06 48.22204 -88.79044 10164 ft 297 kts 272°
2026-04-27 21:06 48.22266 -88.82137 10077 ft 297 kts 272°
2026-04-27 21:07 48.22330 -88.85210 9927 ft 298 kts 272°
2026-04-27 21:07 48.22395 -88.88341 9521 ft 298 kts 272°
2026-04-27 21:07 48.22459 -88.91425 9168 ft 296 kts 272°
2026-04-27 21:07 48.22522 -88.94501 8833 ft 294 kts 272°
2026-04-27 21:08 48.22584 -88.97534 8497 ft 292 kts 272°
2026-04-27 21:08 48.22644 -89.00552 8169 ft 290 kts 272°
2026-04-27 21:08 48.22705 -89.03566 7843 ft 288 kts 272°
2026-04-27 21:08 48.22765 -89.06576 7520 ft 287 kts 272°
2026-04-27 21:09 48.22824 -89.09556 7208 ft 285 kts 272°
2026-04-27 21:09 48.22881 -89.12500 6899 ft 283 kts 272°
2026-04-27 21:09 48.22938 -89.15456 6593 ft 281 kts 272°
2026-04-27 21:09 48.22993 -89.18353 6282 ft 280 kts 272°
2026-04-27 21:10 48.23047 -89.21259 5981 ft 278 kts 272°
2026-04-27 21:10 48.23099 -89.24167 5680 ft 277 kts 272°
2026-04-27 21:10 48.23151 -89.27037 5381 ft 275 kts 272°
2026-04-27 21:10 48.23202 -89.29876 5098 ft 273 kts 272°
2026-04-27 21:11 48.23250 -89.32659 5006 ft 260 kts 272°
2026-04-27 21:11 48.23296 -89.35349 5002 ft 255 kts 272°
2026-04-27 21:11 48.23341 -89.37994 4996 ft 258 kts 272°
2026-04-27 21:11 48.23388 -89.40691 4998 ft 256 kts 272°
2026-04-27 21:12 48.23431 -89.43353 5000 ft 255 kts 272°
2026-04-27 21:12 48.23474 -89.46001 5000 ft 257 kts 272°
2026-04-27 21:12 48.23517 -89.48686 5000 ft 257 kts 273°
2026-04-27 21:12 48.23663 -89.51331 4980 ft 256 kts 289°
2026-04-27 21:13 48.24580 -89.53522 4716 ft 247 kts 327°
2026-04-27 21:13 48.26083 -89.54520 4399 ft 237 kts 352°
2026-04-27 21:13 48.27661 -89.55109 4130 ft 228 kts 349°
2026-04-27 21:13 48.29146 -89.55781 3865 ft 220 kts 346°
2026-04-27 21:14 48.30608 -89.56011 3544 ft 206 kts 18°
2026-04-27 21:14 48.31739 -89.55021 3374 ft 178 kts 50°
2026-04-27 21:14 48.32310 -89.53517 3253 ft 155 kts 71°
2026-04-27 21:14 48.32633 -89.52062 3181 ft 147 kts 72°
2026-04-27 21:15 48.32970 -89.50575 3063 ft 153 kts 72°
2026-04-27 21:15 48.33314 -89.49085 2906 ft 151 kts 71°
2026-04-27 21:15 48.33662 -89.47598 2673 ft 152 kts 71°
2026-04-27 21:15 48.34010 -89.46115 2430 ft 150 kts 70°
2026-04-27 21:16 48.34362 -89.44631 2233 ft 150 kts 71°
2026-04-27 21:16 48.34705 -89.43174 2025 ft 148 kts 70°
2026-04-27 21:16 48.35055 -89.41698 1831 ft 150 kts 71°
2026-04-27 21:16 48.35397 -89.40233 1622 ft 149 kts 71°
2026-04-27 21:17 48.35730 -89.38824 1397 ft 135 kts 70°
2026-04-27 21:17 48.36038 -89.37527 1229 ft 132 kts 70°
2026-04-27 21:17 48.36351 -89.36211 1071 ft 135 kts 71°
2026-04-27 21:17 48.36657 -89.34882 898 ft 133 kts 70°
2026-04-27 21:18 48.36965 -89.33579 729 ft 133 kts 70°
2026-04-27 21:18 48.37257 -89.32321 640 ft 107 kts 70°
2026-04-27 21:18 48.37412 -89.31667 634 ft 40 kts 70°
2026-04-27 21:18 48.37495 -89.31313 632 ft 21 kts 70°
2026-04-27 21:19 48.37496 -89.31197 632 ft 9 kts 144°
2026-04-27 21:19 48.37435 -89.31181 633 ft 8 kts 183°
2026-04-27 21:19 48.37401 -89.31213 634 ft 5 kts 218°
2026-04-27 21:20 48.37346 -89.31276 635 ft 5 kts 218°
2026-04-27 21:20 48.37317 -89.31311 635 ft 6 kts 218°
2026-04-27 21:20 48.37282 -89.31351 636 ft 6 kts 218°
2026-04-27 21:20 48.37246 -89.31393 637 ft 6 kts 218°
2026-04-27 21:21 48.37212 -89.31400 638 ft 4 kts 146°
2026-04-27 21:21 48.37190 -89.31361 638 ft 5 kts 127°
2026-04-27 21:21 48.37180 -89.31340 638 ft 0 kts 126°